アトラス彗星

C/2019 K1 ( ATLAS )

English version
Home page
Updated on August 6, 2019

---------------------------------------------------------------------

・ プロフィール

発見日 2019年5月16日
発見光度 17.1等
発見者 Asteroid Terrestrial-Impact Last Alert System (ATLAS) search program

・ 写真集

・ 軌道要素

Epoch 2020 Feb. 1.0 TT = JDT 2458880.5                                          
T 2020 Feb. 12.95182 TT                                 MPCLINUX                
q   2.0127966            (2000.0)            P               Q                  
z  +0.0000294      Peri.  265.69835     +0.02597847     +0.28886367             
 +/-0.0000491      Node    73.37531     +0.31723075     +0.90547612             
e   0.9999408      Incl.   87.15424     -0.94799250     +0.31091924             
From 168 observations 2019 May 16-July 26, mean residual 0".7.                  

・ 星図

・ 光度変化

        m1 = 9.5 + 5 logΔ + 10.0 log r

---------------------------------------------------------------------

軌道要素はM.P.E.C. 2019-O98に掲載されたものです。
星図はステラナビゲータ Ver.10 (アストロアーツ) で作成したものです。
光度グラフはComet for Windowsで作成したものです。

---------------------------------------------------------------------

Copyright(C) Seiichi Yoshida (comet@aerith.net). All rights reserved.